Year,Month,Day,Hour,Minute,Value (Times are PST for temperature in C)
2017,08,24,00,00,16.00
2017,08,24,00,01,16.00
2017,08,24,00,02,16.00
2017,08,24,00,03,15.90
2017,08,24,00,04,16.00
2017,08,24,00,05,16.00
2017,08,24,00,06,16.00
2017,08,24,00,07,16.00
2017,08,24,00,08,16.00
2017,08,24,00,09,15.90
2017,08,24,00,10,15.90
2017,08,24,00,11,15.90
2017,08,24,00,12,15.90
2017,08,24,00,13,15.90
2017,08,24,00,14,15.90
2017,08,24,00,15,15.90
2017,08,24,00,16,15.90
2017,08,24,00,17,15.90
2017,08,24,00,18,15.90
2017,08,24,00,19,15.90
2017,08,24,00,20,15.90
2017,08,24,00,21,15.90
2017,08,24,00,22,15.90
2017,08,24,00,23,15.90
2017,08,24,00,24,15.90
2017,08,24,00,25,15.90
2017,08,24,00,26,15.90
2017,08,24,00,27,15.90
2017,08,24,00,28,15.90
2017,08,24,00,29,15.90
2017,08,24,00,30,15.90
2017,08,24,00,31,15.90
2017,08,24,00,32,15.90
2017,08,24,00,33,16.00
2017,08,24,00,34,16.00
2017,08,24,00,35,16.00
2017,08,24,00,36,16.00
2017,08,24,00,37,16.00
2017,08,24,00,38,16.00
2017,08,24,00,39,16.00
2017,08,24,00,40,16.00
2017,08,24,00,41,16.00
2017,08,24,00,42,15.90
2017,08,24,00,43,15.90
2017,08,24,00,44,15.90
2017,08,24,00,45,15.90
2017,08,24,00,46,15.90
2017,08,24,00,47,15.90
2017,08,24,00,48,15.90
2017,08,24,00,49,15.90
2017,08,24,00,50,15.80
2017,08,24,00,51,15.80
2017,08,24,00,52,15.80
2017,08,24,00,53,15.80
2017,08,24,00,54,15.70
2017,08,24,00,55,15.70
2017,08,24,00,56,15.70
2017,08,24,00,57,15.70
2017,08,24,00,58,15.70
2017,08,24,00,59,15.60
2017,08,24,01,00,15.60
2017,08,24,01,01,15.60
2017,08,24,01,02,15.60
2017,08,24,01,03,15.60
2017,08,24,01,04,15.60
2017,08,24,01,05,15.50
2017,08,24,01,06,15.50
2017,08,24,01,07,15.50
2017,08,24,01,08,15.50
2017,08,24,01,09,15.50
2017,08,24,01,10,15.50
2017,08,24,01,11,15.40
2017,08,24,01,12,15.40
2017,08,24,01,13,15.40
2017,08,24,01,14,15.40
2017,08,24,01,15,15.40
2017,08,24,01,16,15.40
2017,08,24,01,17,15.40
2017,08,24,01,18,15.40
2017,08,24,01,19,15.40
2017,08,24,01,20,15.40
2017,08,24,01,21,15.40
2017,08,24,01,22,15.40
2017,08,24,01,23,15.30
2017,08,24,01,24,15.30
2017,08,24,01,25,15.30
2017,08,24,01,26,15.30
2017,08,24,01,27,15.30
2017,08,24,01,28,15.30
2017,08,24,01,29,15.30
2017,08,24,01,30,15.30
2017,08,24,01,31,15.30
2017,08,24,01,32,15.30
2017,08,24,01,33,15.30
2017,08,24,01,34,15.30
2017,08,24,01,35,15.30
2017,08,24,01,36,15.30
2017,08,24,01,37,15.30
2017,08,24,01,38,15.30
2017,08,24,01,39,15.30
2017,08,24,01,40,15.30
2017,08,24,01,41,15.30
2017,08,24,01,42,15.30
2017,08,24,01,43,15.30
2017,08,24,01,44,15.30
2017,08,24,01,45,15.20
2017,08,24,01,46,15.20
2017,08,24,01,47,15.20
2017,08,24,01,48,15.20
2017,08,24,01,49,15.20
2017,08,24,01,50,15.20
2017,08,24,01,51,15.20
2017,08,24,01,52,15.20
2017,08,24,01,53,15.20
2017,08,24,01,54,15.20
2017,08,24,01,55,15.20
2017,08,24,01,56,15.20
2017,08,24,01,57,15.20
2017,08,24,01,58,15.20
2017,08,24,01,59,15.10
2017,08,24,02,00,15.10
2017,08,24,02,01,15.10
2017,08,24,02,02,15.10
2017,08,24,02,03,15.00
2017,08,24,02,04,15.00
2017,08,24,02,05,15.00
2017,08,24,02,06,14.90
2017,08,24,02,07,14.90
2017,08,24,02,08,14.90
2017,08,24,02,09,14.90
2017,08,24,02,10,14.90
2017,08,24,02,11,14.90
2017,08,24,02,12,14.90
2017,08,24,02,13,14.90
2017,08,24,02,14,14.90
2017,08,24,02,15,14.90
2017,08,24,02,16,14.90
2017,08,24,02,17,14.80
2017,08,24,02,18,14.80
2017,08,24,02,19,14.80
2017,08,24,02,20,14.80
2017,08,24,02,21,14.80
2017,08,24,02,22,14.80
2017,08,24,02,23,14.80
2017,08,24,02,24,14.80
2017,08,24,02,25,14.80
2017,08,24,02,26,14.80
2017,08,24,02,27,14.70
2017,08,24,02,28,14.70
2017,08,24,02,29,14.70
2017,08,24,02,30,14.70
2017,08,24,02,31,14.70
2017,08,24,02,32,14.70
2017,08,24,02,33,14.70
2017,08,24,02,34,14.70
2017,08,24,02,35,14.70
2017,08,24,02,36,14.70
2017,08,24,02,37,14.70
2017,08,24,02,38,14.70
2017,08,24,02,39,14.70
2017,08,24,02,40,14.70
2017,08,24,02,41,14.70
2017,08,24,02,42,14.70
2017,08,24,02,43,14.70
2017,08,24,02,44,14.70
2017,08,24,02,45,14.70
2017,08,24,02,46,14.70
2017,08,24,02,47,14.70
2017,08,24,02,48,14.70
2017,08,24,02,49,14.70
2017,08,24,02,50,14.70
2017,08,24,02,51,14.70
2017,08,24,02,52,14.70
2017,08,24,02,53,14.70
2017,08,24,02,54,14.60
2017,08,24,02,55,14.60
2017,08,24,02,56,14.60
2017,08,24,02,57,14.60
2017,08,24,02,58,14.60
2017,08,24,02,59,14.60
2017,08,24,03,00,14.50
2017,08,24,03,01,14.50
2017,08,24,03,02,14.50
2017,08,24,03,03,14.50
2017,08,24,03,04,14.40
2017,08,24,03,05,14.40
2017,08,24,03,06,14.40
2017,08,24,03,07,14.40
2017,08,24,03,08,14.40
2017,08,24,03,09,14.40
2017,08,24,03,10,14.40
2017,08,24,03,11,14.30
2017,08,24,03,12,14.30
2017,08,24,03,13,14.30
2017,08,24,03,14,14.30
2017,08,24,03,15,14.30
2017,08,24,03,16,14.30
2017,08,24,03,17,14.20
2017,08,24,03,18,14.20
2017,08,24,03,19,14.20
2017,08,24,03,20,14.20
2017,08,24,03,21,14.20
2017,08,24,03,22,14.20
2017,08,24,03,23,14.20
2017,08,24,03,24,14.10
2017,08,24,03,25,14.10
2017,08,24,03,26,14.10
2017,08,24,03,27,14.10
2017,08,24,03,28,14.00
2017,08,24,03,29,14.00
2017,08,24,03,30,13.90
2017,08,24,03,31,13.90
2017,08,24,03,32,13.80
2017,08,24,03,33,13.80
2017,08,24,03,34,13.80
2017,08,24,03,35,13.70
2017,08,24,03,36,13.70
2017,08,24,03,37,13.70
2017,08,24,03,38,13.70
2017,08,24,03,39,13.70
2017,08,24,03,40,13.60
2017,08,24,03,41,13.60
2017,08,24,03,42,13.60
2017,08,24,03,43,13.60
2017,08,24,03,44,13.60
2017,08,24,03,45,13.60
2017,08,24,03,46,13.60
2017,08,24,03,47,13.60
2017,08,24,03,48,13.60
2017,08,24,03,49,13.70
2017,08,24,03,50,13.70
2017,08,24,03,51,13.70
2017,08,24,03,52,13.70
2017,08,24,03,53,13.70
2017,08,24,03,54,13.70
2017,08,24,03,55,13.70
2017,08,24,03,56,13.70
2017,08,24,03,57,13.80
2017,08,24,03,58,13.80
2017,08,24,03,59,13.80
2017,08,24,04,00,13.80
2017,08,24,04,01,13.80
2017,08,24,04,02,13.80
2017,08,24,04,03,13.80
2017,08,24,04,04,13.80
2017,08,24,04,05,13.70
2017,08,24,04,06,13.70
2017,08,24,04,07,13.70
2017,08,24,04,08,13.70
2017,08,24,04,09,13.70
2017,08,24,04,10,13.60
2017,08,24,04,11,13.60
2017,08,24,04,12,13.60
2017,08,24,04,13,13.60
2017,08,24,04,14,13.60
2017,08,24,04,15,13.50
2017,08,24,04,16,13.50
2017,08,24,04,17,13.50
2017,08,24,04,18,13.40
2017,08,24,04,19,13.40
2017,08,24,04,20,13.30
2017,08,24,04,21,13.30
2017,08,24,04,22,13.30
2017,08,24,04,23,13.20
2017,08,24,04,24,13.20
2017,08,24,04,25,13.20
2017,08,24,04,26,13.20
2017,08,24,04,27,13.20
2017,08,24,04,28,13.10
2017,08,24,04,29,13.10
2017,08,24,04,30,13.10
2017,08,24,04,31,13.10
2017,08,24,04,32,13.00
2017,08,24,04,33,13.00
2017,08,24,04,34,13.00
2017,08,24,04,35,12.90
2017,08,24,04,36,12.90
2017,08,24,04,37,12.90
2017,08,24,04,38,12.90
2017,08,24,04,39,12.90
2017,08,24,04,40,12.90
2017,08,24,04,41,12.80
2017,08,24,04,42,12.80
2017,08,24,04,43,12.80
2017,08,24,04,44,12.80
2017,08,24,04,45,12.80
2017,08,24,04,46,12.80
2017,08,24,04,47,12.80
2017,08,24,04,48,12.80
2017,08,24,04,49,12.70
2017,08,24,04,50,12.70
2017,08,24,04,51,12.80
2017,08,24,04,52,12.80
2017,08,24,04,53,12.80
2017,08,24,04,54,12.80
2017,08,24,04,55,12.80
2017,08,24,04,56,12.80
2017,08,24,04,57,12.80
2017,08,24,04,58,12.80
2017,08,24,04,59,12.80
2017,08,24,05,00,12.80
2017,08,24,05,01,12.80
2017,08,24,05,02,12.70
2017,08,24,05,03,12.70
2017,08,24,05,04,12.70
2017,08,24,05,05,12.70
2017,08,24,05,06,12.60
2017,08,24,05,07,12.60
2017,08,24,05,08,12.60
2017,08,24,05,09,12.60
2017,08,24,05,10,12.60
2017,08,24,05,11,12.60
2017,08,24,05,12,12.50
2017,08,24,05,13,12.50
2017,08,24,05,14,12.50
2017,08,24,05,15,12.50
2017,08,24,05,16,12.50
2017,08,24,05,17,12.50
2017,08,24,05,18,12.50
2017,08,24,05,19,12.40
2017,08,24,05,20,12.40
2017,08,24,05,21,12.40
2017,08,24,05,22,12.40
2017,08,24,05,23,12.40
2017,08,24,05,24,12.40
2017,08,24,05,25,12.30
2017,08,24,05,26,12.30
2017,08,24,05,27,12.30
2017,08,24,05,28,12.30
2017,08,24,05,29,12.30
2017,08,24,05,30,12.30
2017,08,24,05,31,12.30
2017,08,24,05,32,12.30
2017,08,24,05,33,12.30
2017,08,24,05,34,12.30
2017,08,24,05,35,12.20
2017,08,24,05,36,12.20
2017,08,24,05,37,12.20
2017,08,24,05,38,12.20
2017,08,24,05,39,12.20
2017,08,24,05,40,12.20
2017,08,24,05,41,12.20
2017,08,24,05,42,12.20
2017,08,24,05,43,12.20
2017,08,24,05,44,12.20
2017,08,24,05,45,12.20
2017,08,24,05,46,12.20
2017,08,24,05,47,12.20
2017,08,24,05,48,12.20
2017,08,24,05,49,12.20
2017,08,24,05,50,12.20
2017,08,24,05,51,12.20
2017,08,24,05,52,12.20
2017,08,24,05,53,12.20
2017,08,24,05,54,12.30
2017,08,24,05,55,12.30
2017,08,24,05,56,12.30
2017,08,24,05,57,12.30
2017,08,24,05,58,12.30
2017,08,24,05,59,12.30
2017,08,24,06,00,12.30
2017,08,24,06,01,12.30
2017,08,24,06,02,12.30
2017,08,24,06,03,12.20
2017,08,24,06,04,12.20
2017,08,24,06,05,12.20
2017,08,24,06,06,12.20
2017,08,24,06,07,12.20
2017,08,24,06,08,12.20
2017,08,24,06,09,12.20
2017,08,24,06,10,12.20
2017,08,24,06,11,12.20
2017,08,24,06,12,12.20
2017,08,24,06,13,12.20
2017,08,24,06,14,12.20
2017,08,24,06,15,12.20
2017,08,24,06,16,12.20
2017,08,24,06,17,12.20
2017,08,24,06,18,12.30
2017,08,24,06,19,12.30
2017,08,24,06,20,12.30
2017,08,24,06,21,12.30
2017,08,24,06,22,12.30
2017,08,24,06,23,12.30
2017,08,24,06,24,12.40
2017,08,24,06,25,12.40
2017,08,24,06,26,12.40
2017,08,24,06,27,12.40
2017,08,24,06,28,12.40
2017,08,24,06,29,12.50
2017,08,24,06,30,12.50
2017,08,24,06,31,12.50
2017,08,24,06,32,12.50
2017,08,24,06,33,12.50
2017,08,24,06,34,12.50
2017,08,24,06,35,12.60
2017,08,24,06,36,12.60
2017,08,24,06,37,12.60
2017,08,24,06,38,12.60
2017,08,24,06,39,12.60
2017,08,24,06,40,12.60
2017,08,24,06,41,12.70
2017,08,24,06,42,12.70
2017,08,24,06,43,12.70
2017,08,24,06,44,12.70
2017,08,24,06,45,12.70
2017,08,24,06,46,12.70
2017,08,24,06,47,12.70
2017,08,24,06,48,12.70
2017,08,24,06,49,12.70
2017,08,24,06,50,12.70
2017,08,24,06,51,12.70
2017,08,24,06,52,12.70
2017,08,24,06,53,12.70
2017,08,24,06,54,12.70
2017,08,24,06,55,12.70
2017,08,24,06,56,12.70
2017,08,24,06,57,12.70
2017,08,24,06,58,12.70
2017,08,24,06,59,12.70
2017,08,24,07,00,12.70
2017,08,24,07,01,12.70
2017,08,24,07,02,12.70
2017,08,24,07,03,12.70
2017,08,24,07,04,12.70
2017,08,24,07,05,12.70
2017,08,24,07,06,12.70
2017,08,24,07,07,12.70
2017,08,24,07,08,12.60
2017,08,24,07,09,12.60
2017,08,24,07,10,12.60
2017,08,24,07,11,12.60
2017,08,24,07,12,12.60
2017,08,24,07,13,12.60
2017,08,24,07,14,12.60
2017,08,24,07,15,12.60
2017,08,24,07,16,12.50
2017,08,24,07,17,12.50
2017,08,24,07,18,12.50
2017,08,24,07,19,12.50
2017,08,24,07,20,12.50
2017,08,24,07,21,12.50
2017,08,24,07,22,12.50
2017,08,24,07,23,12.50
2017,08,24,07,24,12.50
2017,08,24,07,25,12.50
2017,08,24,07,26,12.60
2017,08,24,07,27,12.60
2017,08,24,07,28,12.60
2017,08,24,07,29,12.60
2017,08,24,07,30,12.60
2017,08,24,07,31,12.60
2017,08,24,07,32,12.60
2017,08,24,07,33,12.60
2017,08,24,07,34,12.70
2017,08,24,07,35,12.70
2017,08,24,07,36,12.70
2017,08,24,07,37,12.70
2017,08,24,07,38,12.70
2017,08,24,07,39,12.70
2017,08,24,07,40,12.70
2017,08,24,07,41,12.70
2017,08,24,07,42,12.70
2017,08,24,07,43,12.80
2017,08,24,07,44,12.80
2017,08,24,07,45,12.80
2017,08,24,07,46,12.80
2017,08,24,07,47,12.80
2017,08,24,07,48,12.80
2017,08,24,07,49,12.80
2017,08,24,07,50,12.80
2017,08,24,07,51,12.80
2017,08,24,07,52,12.90
2017,08,24,07,53,12.90
2017,08,24,07,54,12.90
2017,08,24,07,55,12.90
2017,08,24,07,56,12.90
2017,08,24,07,57,12.90
2017,08,24,07,58,12.90
2017,08,24,07,59,13.00
2017,08,24,08,00,13.00
2017,08,24,08,01,13.00
2017,08,24,08,02,13.10
2017,08,24,08,03,13.10
2017,08,24,08,04,13.20
2017,08,24,08,05,13.20
2017,08,24,08,06,13.20
2017,08,24,08,07,13.20
2017,08,24,08,08,13.20
2017,08,24,08,09,13.20
2017,08,24,08,10,13.30
2017,08,24,08,11,13.30
2017,08,24,08,12,13.30
2017,08,24,08,13,13.30
2017,08,24,08,14,13.30
2017,08,24,08,15,13.40
2017,08,24,08,16,13.40
2017,08,24,08,17,13.40
2017,08,24,08,18,13.50
2017,08,24,08,19,13.50
2017,08,24,08,20,13.40
2017,08,24,08,21,13.40
2017,08,24,08,22,13.40
2017,08,24,08,23,13.40
2017,08,24,08,24,13.40
2017,08,24,08,25,13.40
2017,08,24,08,26,13.40
2017,08,24,08,27,13.30
2017,08,24,08,28,13.30
2017,08,24,08,29,13.30
2017,08,24,08,30,13.30
2017,08,24,08,31,13.20
2017,08,24,08,32,13.20
2017,08,24,08,33,13.20
2017,08,24,08,34,13.20
2017,08,24,08,35,13.20
2017,08,24,08,36,13.20
2017,08,24,08,37,13.20
2017,08,24,08,38,13.20
2017,08,24,08,39,13.30
2017,08,24,08,40,13.30
2017,08,24,08,41,13.30
2017,08,24,08,42,13.30
2017,08,24,08,43,13.30
2017,08,24,08,44,13.30
2017,08,24,08,45,13.30
2017,08,24,08,46,13.30
2017,08,24,08,47,13.30
2017,08,24,08,48,13.40
2017,08,24,08,49,13.40
2017,08,24,08,50,13.40
2017,08,24,08,51,13.40
2017,08,24,08,52,13.40
2017,08,24,08,53,13.50
2017,08,24,08,54,13.50
2017,08,24,08,55,13.50
2017,08,24,08,56,13.50
2017,08,24,08,57,13.50
2017,08,24,08,58,13.60
2017,08,24,08,59,13.60
2017,08,24,09,00,13.60
2017,08,24,09,01,13.60
2017,08,24,09,02,13.70
2017,08,24,09,03,13.70
2017,08,24,09,04,13.70
2017,08,24,09,05,13.70
2017,08,24,09,06,13.80
2017,08,24,09,07,13.80
2017,08,24,09,08,13.80
2017,08,24,09,09,13.70
2017,08,24,09,10,13.70
2017,08,24,09,11,13.70
2017,08,24,09,12,13.70
2017,08,24,09,13,13.70
2017,08,24,09,14,13.70
2017,08,24,09,15,13.60
2017,08,24,09,16,13.60
2017,08,24,09,17,13.50
2017,08,24,09,18,13.50
2017,08,24,09,19,13.40
2017,08,24,09,20,13.40
2017,08,24,09,21,13.40
2017,08,24,09,22,13.40
2017,08,24,09,23,13.40
2017,08,24,09,24,13.40
2017,08,24,09,25,13.50
2017,08,24,09,26,13.50
2017,08,24,09,27,13.50
2017,08,24,09,28,13.60
2017,08,24,09,29,13.60
2017,08,24,09,30,13.60
2017,08,24,09,31,13.70
2017,08,24,09,32,13.70
2017,08,24,09,33,13.80
2017,08,24,09,34,13.80
2017,08,24,09,35,13.90
2017,08,24,09,36,13.90
2017,08,24,09,37,13.90
2017,08,24,09,38,14.00
2017,08,24,09,39,14.00
2017,08,24,09,40,14.00
2017,08,24,09,41,14.10
2017,08,24,09,42,14.10
2017,08,24,09,43,14.10
2017,08,24,09,44,14.10
2017,08,24,09,45,14.10
2017,08,24,09,46,14.10
2017,08,24,09,47,14.10
2017,08,24,09,48,14.10
2017,08,24,09,49,14.10
2017,08,24,09,50,14.20
2017,08,24,09,51,14.20
2017,08,24,09,52,14.30
2017,08,24,09,53,14.40
2017,08,24,09,54,14.50
2017,08,24,09,55,14.50
2017,08,24,09,56,14.60
2017,08,24,09,57,14.70
2017,08,24,09,58,14.70
2017,08,24,09,59,14.80
2017,08,24,10,00,14.90
2017,08,24,10,01,15.00
2017,08,24,10,02,15.10
2017,08,24,10,03,15.10
2017,08,24,10,04,15.20
2017,08,24,10,05,15.30
2017,08,24,10,06,15.40
2017,08,24,10,07,15.50
2017,08,24,10,08,15.60
2017,08,24,10,09,15.60
2017,08,24,10,10,15.70
2017,08,24,10,11,15.80
2017,08,24,10,12,15.80
2017,08,24,10,13,15.80
2017,08,24,10,14,15.80
2017,08,24,10,15,15.80
2017,08,24,10,16,15.80
2017,08,24,10,17,15.80
2017,08,24,10,18,15.80
2017,08,24,10,19,15.80
2017,08,24,10,20,15.80
2017,08,24,10,21,15.80
2017,08,24,10,22,15.80
2017,08,24,10,23,15.90
2017,08,24,10,24,15.90
2017,08,24,10,25,16.00
2017,08,24,10,26,16.10
2017,08,24,10,27,16.20
2017,08,24,10,28,16.20
2017,08,24,10,29,16.30
2017,08,24,10,30,16.30
2017,08,24,10,31,16.40
2017,08,24,10,32,16.40
2017,08,24,10,33,16.50
2017,08,24,10,34,16.50
2017,08,24,10,35,16.50
2017,08,24,10,36,16.60
2017,08,24,10,37,16.70
2017,08,24,10,38,16.80
2017,08,24,10,39,16.70
2017,08,24,10,40,16.60
2017,08,24,10,41,16.50
2017,08,24,10,42,16.40
2017,08,24,10,43,16.30
2017,08,24,10,44,16.10
2017,08,24,10,45,16.00
2017,08,24,10,46,15.90
2017,08,24,10,47,15.80
2017,08,24,10,48,15.80
2017,08,24,10,49,15.80
2017,08,24,10,50,15.80
2017,08,24,10,51,15.80
2017,08,24,10,52,15.80
2017,08,24,10,53,15.90
2017,08,24,10,54,15.90
2017,08,24,10,55,16.00
2017,08,24,10,56,16.10
2017,08,24,10,57,16.20
2017,08,24,10,58,16.30
2017,08,24,10,59,16.40
2017,08,24,11,00,16.40
2017,08,24,11,01,16.50
2017,08,24,11,02,16.60
2017,08,24,11,03,16.60
2017,08,24,11,04,16.70
2017,08,24,11,05,16.70
2017,08,24,11,06,16.80
2017,08,24,11,07,16.80
2017,08,24,11,08,16.90
2017,08,24,11,09,16.90
2017,08,24,11,10,17.00
2017,08,24,11,11,17.10
2017,08,24,11,12,17.10
2017,08,24,11,13,17.10
2017,08,24,11,14,17.20
2017,08,24,11,15,17.20
2017,08,24,11,16,17.20
2017,08,24,11,17,17.30
2017,08,24,11,18,17.30
2017,08,24,11,19,17.20
2017,08,24,11,20,17.10
2017,08,24,11,21,17.10
2017,08,24,11,22,17.10
2017,08,24,11,23,17.10
2017,08,24,11,24,17.10
2017,08,24,11,25,17.10
2017,08,24,11,26,17.10
2017,08,24,11,27,17.10
2017,08,24,11,28,17.10
2017,08,24,11,29,17.10
2017,08,24,11,30,17.20
2017,08,24,11,31,17.20
2017,08,24,11,32,17.30
2017,08,24,11,33,17.30
2017,08,24,11,34,17.30
2017,08,24,11,35,17.40
2017,08,24,11,36,17.50
2017,08,24,11,37,17.60
2017,08,24,11,38,17.70
2017,08,24,11,39,17.80
2017,08,24,11,40,17.80
2017,08,24,11,41,17.90
2017,08,24,11,42,17.90
2017,08,24,11,43,18.00
2017,08,24,11,44,18.00
2017,08,24,11,45,18.10
2017,08,24,11,46,18.10
2017,08,24,11,47,18.00
2017,08,24,11,48,18.00
2017,08,24,11,49,18.00
2017,08,24,11,50,17.90
2017,08,24,11,51,17.80
2017,08,24,11,52,17.70
2017,08,24,11,53,17.70
2017,08,24,11,54,17.60
2017,08,24,11,55,17.60
2017,08,24,11,56,17.70
2017,08,24,11,57,17.70
2017,08,24,11,58,17.70
2017,08,24,11,59,17.80
2017,08,24,12,00,17.80
2017,08,24,12,01,17.80
2017,08,24,12,02,17.80
2017,08,24,12,03,17.80
2017,08,24,12,04,17.80
2017,08,24,12,05,17.80
2017,08,24,12,06,17.80
2017,08,24,12,07,17.80
2017,08,24,12,08,17.90
2017,08,24,12,09,18.00
2017,08,24,12,10,18.10
2017,08,24,12,11,18.10
2017,08,24,12,12,18.10
2017,08,24,12,13,18.00
2017,08,24,12,14,18.00
2017,08,24,12,15,17.90
2017,08,24,12,16,17.90
2017,08,24,12,17,17.90
2017,08,24,12,18,17.90
2017,08,24,12,19,17.90
2017,08,24,12,20,17.90
2017,08,24,12,21,17.90
2017,08,24,12,22,17.90
2017,08,24,12,23,17.90
2017,08,24,12,24,17.90
2017,08,24,12,25,18.00
2017,08,24,12,26,18.00
2017,08,24,12,27,18.00
2017,08,24,12,28,18.00
2017,08,24,12,29,18.00
2017,08,24,12,30,18.10
2017,08,24,12,31,18.10
2017,08,24,12,32,18.20
2017,08,24,12,33,18.30
2017,08,24,12,34,18.30
2017,08,24,12,35,18.40
2017,08,24,12,36,18.40
2017,08,24,12,37,18.50
2017,08,24,12,38,18.60
2017,08,24,12,39,18.70
2017,08,24,12,40,18.70
2017,08,24,12,41,18.70
2017,08,24,12,42,18.70
2017,08,24,12,43,18.70
2017,08,24,12,44,18.70
2017,08,24,12,45,18.80
2017,08,24,12,46,18.80
2017,08,24,12,47,18.80
2017,08,24,12,48,18.90
2017,08,24,12,49,18.90
2017,08,24,12,50,18.90
2017,08,24,12,51,18.80
2017,08,24,12,52,18.90
2017,08,24,12,53,18.90
2017,08,24,12,54,18.90
2017,08,24,12,55,18.90
2017,08,24,12,56,18.90
2017,08,24,12,57,18.80
2017,08,24,12,58,18.80
2017,08,24,12,59,18.80
2017,08,24,13,00,18.80
2017,08,24,13,01,18.80
2017,08,24,13,02,18.80
2017,08,24,13,03,18.80
2017,08,24,13,04,18.90
2017,08,24,13,05,19.00
2017,08,24,13,06,19.00
2017,08,24,13,07,19.00
2017,08,24,13,08,19.00
2017,08,24,13,09,19.00
2017,08,24,13,10,18.90
2017,08,24,13,11,18.90
2017,08,24,13,12,18.90
2017,08,24,13,13,18.90
2017,08,24,13,14,18.80
2017,08,24,13,15,18.80
2017,08,24,13,16,18.80
2017,08,24,13,17,18.70
2017,08,24,13,18,18.70
2017,08,24,13,19,18.70
2017,08,24,13,20,18.70
2017,08,24,13,21,18.70
2017,08,24,13,22,18.70
2017,08,24,13,23,18.60
2017,08,24,13,24,18.60
2017,08,24,13,25,18.50
2017,08,24,13,26,18.50
2017,08,24,13,27,18.50
2017,08,24,13,28,18.50
2017,08,24,13,29,18.50
2017,08,24,13,30,18.60
2017,08,24,13,31,18.60
2017,08,24,13,32,18.60
2017,08,24,13,33,18.60
2017,08,24,13,34,18.50
2017,08,24,13,35,18.60
2017,08,24,13,36,18.60
2017,08,24,13,37,18.60
2017,08,24,13,38,18.60
2017,08,24,13,39,18.60
2017,08,24,13,40,18.60
2017,08,24,13,41,18.70
2017,08,24,13,42,18.70
2017,08,24,13,43,18.80
2017,08,24,13,44,18.90
2017,08,24,13,45,18.90
2017,08,24,13,46,18.90
2017,08,24,13,47,19.00
2017,08,24,13,48,19.10
2017,08,24,13,49,19.10
2017,08,24,13,50,19.20
2017,08,24,13,51,19.20
2017,08,24,13,52,19.20
2017,08,24,13,53,19.20
2017,08,24,13,54,19.20
2017,08,24,13,55,19.20
2017,08,24,13,56,19.20
2017,08,24,13,57,19.20
2017,08,24,13,58,19.30
2017,08,24,13,59,19.30
2017,08,24,14,00,19.40
2017,08,24,14,01,19.50
2017,08,24,14,02,19.50
2017,08,24,14,03,19.50
2017,08,24,14,04,19.60
2017,08,24,14,05,19.60
2017,08,24,14,06,19.60
2017,08,24,14,07,19.70
2017,08,24,14,08,19.70
2017,08,24,14,09,19.70
2017,08,24,14,10,19.70
2017,08,24,14,11,19.60
2017,08,24,14,12,19.60
2017,08,24,14,13,19.50
2017,08,24,14,14,19.40
2017,08,24,14,15,19.30
2017,08,24,14,16,19.30
2017,08,24,14,17,19.20
2017,08,24,14,18,19.10
2017,08,24,14,19,19.10
2017,08,24,14,20,19.00
2017,08,24,14,21,18.90
2017,08,24,14,22,18.80
2017,08,24,14,23,18.80
2017,08,24,14,24,18.70
2017,08,24,14,25,18.70
2017,08,24,14,26,18.70
2017,08,24,14,27,18.70
2017,08,24,14,28,18.70
2017,08,24,14,29,18.70
2017,08,24,14,30,18.70
2017,08,24,14,31,18.80
2017,08,24,14,32,18.80
2017,08,24,14,33,18.80
2017,08,24,14,34,18.80
2017,08,24,14,35,18.80
2017,08,24,14,36,18.80
2017,08,24,14,37,18.70
2017,08,24,14,38,18.70
2017,08,24,14,39,18.70
2017,08,24,14,40,18.80
2017,08,24,14,41,18.80
2017,08,24,14,42,18.80
2017,08,24,14,43,18.90
2017,08,24,14,44,18.90
2017,08,24,14,45,18.90
2017,08,24,14,46,18.90
2017,08,24,14,47,18.90
2017,08,24,14,48,18.90
2017,08,24,14,49,18.90
2017,08,24,14,50,18.90
2017,08,24,14,51,18.90
2017,08,24,14,52,18.90
2017,08,24,14,53,18.90
2017,08,24,14,54,18.80
2017,08,24,14,55,18.80
2017,08,24,14,56,18.80
2017,08,24,14,57,18.80
2017,08,24,14,58,18.90
2017,08,24,14,59,18.90
2017,08,24,15,00,18.90
2017,08,24,15,01,19.00
2017,08,24,15,02,19.00
2017,08,24,15,03,19.10
2017,08,24,15,04,19.10
2017,08,24,15,05,19.20
2017,08,24,15,06,19.20
2017,08,24,15,07,19.30
2017,08,24,15,08,19.30
2017,08,24,15,09,19.50
2017,08,24,15,10,19.50
2017,08,24,15,11,19.70
2017,08,24,15,12,19.70
2017,08,24,15,13,19.70
2017,08,24,15,14,19.70
2017,08,24,15,15,19.70
2017,08,24,15,16,19.70
2017,08,24,15,17,19.80
2017,08,24,15,18,19.80
2017,08,24,15,19,19.80
2017,08,24,15,20,19.80
2017,08,24,15,21,19.80
2017,08,24,15,22,19.70
2017,08,24,15,23,19.70
2017,08,24,15,24,19.70
2017,08,24,15,25,19.70
2017,08,24,15,26,19.70
2017,08,24,15,27,19.70
2017,08,24,15,28,19.70
2017,08,24,15,29,19.70
2017,08,24,15,30,19.70
2017,08,24,15,31,19.80
2017,08,24,15,32,19.80
2017,08,24,15,33,19.80
2017,08,24,15,34,19.80
2017,08,24,15,35,19.80
2017,08,24,15,36,19.80
2017,08,24,15,37,19.80
2017,08,24,15,38,19.80
2017,08,24,15,39,19.80
2017,08,24,15,40,19.80
2017,08,24,15,41,19.80
2017,08,24,15,42,19.90
2017,08,24,15,43,20.00
2017,08,24,15,44,20.00
2017,08,24,15,45,20.10
2017,08,24,15,46,20.10
2017,08,24,15,47,20.10
2017,08,24,15,48,20.20
2017,08,24,15,49,20.20
2017,08,24,15,50,20.20
2017,08,24,15,51,20.30
2017,08,24,15,52,20.30
2017,08,24,15,53,20.30
2017,08,24,15,54,20.30
2017,08,24,15,55,20.40
2017,08,24,15,56,20.40
2017,08,24,15,57,20.40
2017,08,24,15,58,20.40
2017,08,24,15,59,20.30
2017,08,24,16,00,20.20
2017,08,24,16,01,20.10
2017,08,24,16,02,20.10
2017,08,24,16,03,20.10
2017,08,24,16,04,20.10
2017,08,24,16,05,20.10
2017,08,24,16,06,20.10
2017,08,24,16,07,20.10
2017,08,24,16,08,20.10
2017,08,24,16,09,20.20
2017,08,24,16,10,20.30
2017,08,24,16,11,20.30
2017,08,24,16,12,20.30
2017,08,24,16,13,20.30
2017,08,24,16,14,20.40
2017,08,24,16,15,20.30
2017,08,24,16,16,20.30
2017,08,24,16,17,20.30
2017,08,24,16,18,20.20
2017,08,24,16,19,20.10
2017,08,24,16,20,20.10
2017,08,24,16,21,20.10
2017,08,24,16,22,20.10
2017,08,24,16,23,20.10
2017,08,24,16,24,20.00
2017,08,24,16,25,20.00
2017,08,24,16,26,19.90
2017,08,24,16,27,19.90
2017,08,24,16,28,19.80
2017,08,24,16,29,19.80
2017,08,24,16,30,19.80
2017,08,24,16,31,19.80
2017,08,24,16,32,19.80
2017,08,24,16,33,19.80
2017,08,24,16,34,19.90
2017,08,24,16,35,19.90
2017,08,24,16,36,19.90
2017,08,24,16,37,19.90
2017,08,24,16,38,20.00
2017,08,24,16,39,20.00
2017,08,24,16,40,20.10
2017,08,24,16,41,20.10
2017,08,24,16,42,20.20
2017,08,24,16,43,20.30
2017,08,24,16,44,20.40
2017,08,24,16,45,20.40
2017,08,24,16,46,20.50
2017,08,24,16,47,20.60
2017,08,24,16,48,20.70
2017,08,24,16,49,20.80
2017,08,24,16,50,20.80
2017,08,24,16,51,20.90
2017,08,24,16,52,20.90
2017,08,24,16,53,20.90
2017,08,24,16,54,20.90
2017,08,24,16,55,20.90
2017,08,24,16,56,20.80
2017,08,24,16,57,20.80
2017,08,24,16,58,20.70
2017,08,24,16,59,20.60
2017,08,24,17,00,20.60
2017,08,24,17,01,20.60
2017,08,24,17,02,20.50
2017,08,24,17,03,20.50
2017,08,24,17,04,20.50
2017,08,24,17,05,20.50
2017,08,24,17,06,20.50
2017,08,24,17,07,20.50
2017,08,24,17,08,20.50
2017,08,24,17,09,20.50
2017,08,24,17,10,20.50
2017,08,24,17,11,20.50
2017,08,24,17,12,20.50
2017,08,24,17,13,20.60
2017,08,24,17,14,20.70
2017,08,24,17,15,20.80
2017,08,24,17,16,20.80
2017,08,24,17,17,20.90
2017,08,24,17,18,20.90
2017,08,24,17,19,20.90